User: anonymous   Login
Location: Vancouver
(49.2500°N, 123.1330°W)
Time: 23:16:52
(UTC-07:00)
Language:

Cosmos 1408 Rocket - Orbit

View from above orbital plane
View from above orbital plane
View from above satellite
View from above satellite

Ground track
Ground track

The orbit data is extracted from the following two-line orbital elements,

1 13553U 82092B   14302.84057338  .00000542  00000-0  62600-4 0   569
2 13553 082.5713 049.5337 0020812 344.5218 132.8707 14.83646307734460
Epoch (UTC): 29 October 2014 20:10:25
Eccentricity: 0.0020812
inclination: 82.5713°
perigee height: 603 km
apogee height: 632 km
right ascension of ascending node: 49.5337°
argument of perigee: 344.5218°
revolutions per day: 14.83646307
mean anomaly at epoch: 132.8707°
orbit number at epoch: 73446

The dashed part of the orbit path shows where the satellite is in the earth's shadow,  

DLR